Retour au catalogue

SITRO-AIS-25

ActifCommunicationsPO
NORAD 59066·PAYLOAD·🇷🇺 Russia
Ce nom de satellite n'a pas encore été confirmé par des sources officielles.

Lancé Feb 29, 2024 depuis Vostochny Cosmodrome

Loading…

Prochains Passages (prochaines 24 heures)

TLE

FraisSource: Space-Track

Époque: Sep 14, 2026, 12:55 UTC

1 59066U 24039R   26257.53862509  .00002871  00000-0  22186-3 0  9994
2 59066  95.3818 296.4679 0143893  16.3384 344.2409 14.94035074138069

Suivez SITRO-AIS-25 en temps réel avec AllMySat

Download on the App Store